Location: Fort Wayne
(41.1310°N, 85.1290°W)
Time: 07:58:36
(UTC-04:00)

Gbstr 26 Del rocket - Visible Passes

Search period start: 19 April 2014 00:00
Search period end: 29 April 2014 00:00
Orbit: 494 x 1280 km, 51.8° (Epoch: 18 April)

Date Brightness Start Highest point End Pass type
(mag) Time Alt. Az. Time Alt. Az. Time Alt. Az.
19 Apr 5.6 02:12:07 33° E 02:12:07 33° E 02:16:44 10° ENE visible
19 Apr 4.6 03:54:48 52° W 03:56:43 66° NNW 04:04:56 10° NE visible
19 Apr 5.6 05:38:12 10° WNW 05:45:41 40° N 05:53:15 10° ENE visible
20 Apr 5.3 02:09:47 38° E 02:09:47 38° E 02:14:51 10° ENE visible
20 Apr 4.8 03:52:28 44° WNW 03:54:50 59° NNW 04:02:58 10° NE visible
20 Apr 5.6 05:36:29 10° WNW 05:43:56 39° N 05:51:27 10° ENE visible
21 Apr 5.1 02:07:24 45° ENE 02:07:24 45° ENE 02:12:55 10° ENE visible
21 Apr 5.0 03:50:05 37° WNW 03:52:59 53° NNW 04:01:01 10° NE visible
21 Apr 5.7 05:34:45 10° WNW 05:42:12 39° N 05:49:41 10° ENE visible
22 Apr 4.9 02:04:56 53° ENE 02:04:56 53° ENE 02:10:58 10° NE visible
22 Apr 5.2 03:47:37 30° WNW 03:51:09 48° NNW 03:59:04 10° NE visible
22 Apr 5.7 05:32:58 10° WNW 05:40:27 39° N 05:47:57 10° ENE visible
23 Apr 6.5 00:19:44 11° ENE 00:19:44 11° ENE 00:20:10 10° ENE visible
23 Apr 4.7 02:02:24 61° NE 02:02:24 61° NE 02:08:58 10° NE visible
23 Apr 5.3 03:45:04 25° WNW 03:49:21 44° NNW 03:57:10 10° NE visible
23 Apr 5.7 05:31:10 10° WNW 05:38:41 40° N 05:46:14 10° ENE visible
24 Apr 6.3 00:17:06 15° ENE 00:17:06 15° ENE 00:18:27 10° ENE visible
24 Apr 4.6 01:59:46 68° NNE 01:59:46 68° NNE 02:06:58 10° NE visible
24 Apr 5.5 03:42:26 19° WNW 03:47:34 42° N 03:55:16 10° ENE visible
24 Apr 5.7 05:29:19 10° WNW 05:36:55 42° NNE 05:44:31 10° E visible
25 Apr 6.0 00:14:21 20° ENE 00:14:21 20° ENE 00:16:38 10° ENE visible
25 Apr 4.6 01:57:01 67° NNW 01:57:01 67° NNW 02:04:58 10° NE visible
25 Apr 5.6 03:39:40 14° WNW 03:45:47 40° N 03:53:25 10° ENE visible
25 Apr 5.6 05:27:26 10° NW 05:35:07 45° NNE 05:42:47 10° E visible
26 Apr 5.6 00:11:27 26° ENE 00:11:27 26° ENE 00:14:45 10° ENE visible
26 Apr 4.7 01:54:05 55° NW 01:54:59 59° NNW 02:02:58 10° NE visible
26 Apr 5.7 03:36:54 10° WNW 03:44:01 39° N 03:51:36 10° ENE visible
26 Apr 5.5 05:25:30 10° NW 05:33:18 48° NNE 05:41:03 10° E visible
27 Apr 5.1 00:08:17 36° ENE 00:08:17 36° ENE 00:12:48 10° ENE visible
27 Apr 5.0 01:50:54 41° WNW 01:53:06 52° NNW 02:00:59 10° NE visible
27 Apr 5.7 03:35:08 10° WNW 03:42:15 38° N 03:49:48 10° ENE visible
27 Apr 5.4 05:23:32 10° NW 05:31:26 53° NNE 05:39:17 10° E visible
28 Apr 4.4 00:04:38 57° ENE 00:04:38 57° ENE 00:10:49 10° NE visible
28 Apr 5.2 01:47:12 25° WNW 01:51:15 47° NNW 01:59:01 10° NE visible
28 Apr 5.7 03:33:20 10° WNW 03:40:28 39° N 03:48:02 10° ENE visible
28 Apr 5.2 05:21:33 10° NW 05:29:33 58° NNE 05:37:29 10° ESE visible
28 Apr 5.6 22:17:20 18° E 22:17:20 18° E 22:19:48 10° ENE visible
28 Apr 4.1 23:59:45 63° SW 00:00:00 68° SW 00:00:00 68° SW visible
